Portada
METAR-TAF:

METAR-TAF

Aeroports :

Johnson County Airport

Buffalo, Wyoming, Estats Units d'Amèrica

latitud: 44-22-53N, longitud: 106-43-08W, altitud: 1514 m

Observació

L'informe es va fer fa 20 minuts, a les 21:53 UTC
Vent 6 kt del Nord/Nord-Oest
Temperatura 5°C
Humitat 17%
Pressió 1007 hPa
Visibilitat: 16.1 km
Cel clar

METAR: KBYG 232153Z AUTO 34006KT 10SM CLR 05/M18 A2974 RMK AO2 SLP082 T00501178

Hora: 15:13 (22:13 UTC)


TAF: manca

Observacions i pronòstics meteorològics de més de 4000 aeroports (METAR i TAF).

Les estacions disponibles són els punts grocs i vermells al mapa.

Posi el ratolí al punt desitjat per veure el nom de l'estació.

Feu clic per veure les observacions i els pronòstics meteorològics.

Per canviar el mapa: feu clic els botons verds amb una creu de color negre per apropar; al botó verd amb un guió per allunyar la imatge; o en les fletxes verdes per a mapes adjacents.


METAR-TAF: